Вернуться в каталог

SL-8 DEB

АктивенLEO
NORAD 10526·DEBRIS·🇷🇺 Russia

Запущен Dec 13, 1977 с Plesetsk Cosmodrome

Loading…

Ближайшие Пролёты (ближайшие 24 часа)

TLE

СвежийSource: Space-Track

Эпоха: Sep 14, 2026, 13:57 UTC

1 10526U 77116D   26257.58133556  .00000064  00000-0  14168-3 0  9997
2 10526  65.8328 198.0667 0040175 263.3891 270.1236 13.79045952449030

Отслеживайте SL-8 DEB в реальном времени с AllMySat

Download on the App Store